Location: Unspecified
(0.0000°N, 0.0000°E)
Time: 18:06:29
(UTC+00:00)

Vanguard 2 Rocket - Pass Details

Date: 21 January 2020
Orbit: 554 x 3327 km, 32.9° (Epoch: 20 February)

Event Time Altitude Azimuth Distance (km) Brightness Sun altitude
Rises 11:33:36 0° 322° (NW) 5,202 10.6 68.0°
Reaches altitude 10° 11:36:50 10° 329° (NNW) 4,546 10.4 68.3°
Maximum altitude 11:49:51 44° 37° (NE) 3,580 10.4 69.4°
Drops below altitude 10° 12:08:05 10° 103° (ESE) 6,282 11.4 70.0°
Sets 12:13:28 0° 109° (ESE) 7,291 11.6 70.0°
